| time (UTC) | temp F | wind direction | speed MPH | gust MPH | rain 1hr in | rain 24hr in | rain mn in | humidity % | barometer mb |
| 20260504151003 | 58 | 351 | 8.0 | 15.0 | 0.00 | 0.00 | 0.00 | 39 | 1003.3 |
| 20260504141003 | 58 | 39 | 7.0 | 13.0 | 0.00 | 0.00 | 0.00 | 36 | 1003.7 |
| 20260504082003 | 50 | 37 | 7.0 | 13.0 | 0.00 | 0.00 | 0.00 | 50 | 1004.5 |
| 20260504081003 | 51 | 34 | 5.0 | 13.0 | 0.00 | 0.00 | 0.00 | 49 | 1004.4 |
| 20260504050003 | 46 | 6 | 2.0 | 4.0 | 0.00 | 0.00 | 0.00 | 93 | 1003.8 |
| 20260504045003 | 46 | 19 | 2.0 | 4.0 | 0.00 | 0.00 | 0.00 | 93 | 1003.8 |
| 20260504044003 | 46 | 0 | 0.0 | 4.0 | 0.00 | 0.00 | 0.00 | 93 | 1004.1 |
| 20260504043003 | 46 | 296 | 2.0 | 4.0 | 0.00 | 0.00 | 0.00 | 93 | 1004.0 |
| 20260504042003 | 46 | 324 | 1.0 | 6.0 | 0.00 | 0.00 | 0.00 | 94 | 1004.1 |
| 20260504041003 | 46 | 323 | 2.0 | 4.0 | 0.00 | 0.00 | 0.00 | 95 | 1004.0 |
| 20260504040004 | 45 | 318 | 1.0 | 4.0 | 0.00 | 0.00 | 0.00 | 96 | 1004.1 |
| 20260504035003 | 45 | 319 | 1.0 | 4.0 | 0.00 | 0.00 | 0.00 | 96 | 1004.0 |
| 20260504034003 | 45 | 325 | 1.0 | 4.0 | 0.00 | 0.00 | 0.00 | 96 | 1004.2 |
| 20260504033003 | 45 | 0 | 0.0 | 2.0 | 0.00 | 0.00 | 0.00 | 97 | 1004.2 |
| 20260504032003 | 45 | 0 | 0.0 | 2.0 | 0.00 | 0.00 | 0.00 | 97 | 1004.3 |
| 20260504031003 | 45 | 274 | 1.0 | 2.0 | 0.00 | 0.00 | 0.00 | 96 | 1004.1 |
| 20260504030003 | 45 | 0 | 0.0 | 4.0 | 0.00 | 0.00 | 0.00 | 96 | 1004.4 |
| 20260504025003 | 46 | 287 | 2.0 | 4.0 | 0.00 | 0.00 | 0.00 | 95 | 1004.4 |
| 20260504024003 | 46 | 0 | 0.0 | 2.0 | 0.00 | 0.00 | 0.00 | 94 | 1004.4 |
| 20260504023003 | 46 | 0 | 0.0 | 2.0 | 0.00 | 0.00 | 0.00 | 94 | 1004.4 |
| 20260504022003 | 47 | 0 | 0.0 | 2.0 | 0.00 | 0.00 | 0.00 | 93 | 1004.8 |
| 20260504021003 | 47 | 0 | 0.0 | 4.0 | 0.00 | 0.00 | 0.00 | 93 | 1004.7 |
| 20260504020004 | 47 | 0 | 0.0 | 4.0 | 0.00 | 0.00 | 0.00 | 93 | 1004.6 |
| 20260504015003 | 47 | 269 | 2.0 | 4.0 | 0.00 | 0.00 | 0.00 | 93 | 1004.8 |
| 20260504014003 | 47 | 261 | 2.0 | 4.0 | 0.00 | 0.00 | 0.00 | 93 | 1004.7 |
| 20260504013003 | 47 | 254 | 1.0 | 4.0 | 0.00 | 0.00 | 0.00 | 93 | 1005.0 |
| 20260504012003 | 47 | 272 | 2.0 | 4.0 | 0.00 | 0.00 | 0.00 | 92 | 1005.2 |
| 20260504011003 | 47 | 277 | 2.0 | 4.0 | 0.00 | 0.00 | 0.00 | 92 | 1005.1 |
| 20260504010003 | 47 | 276 | 1.0 | 4.0 | 0.00 | 0.00 | 0.00 | 91 | 1005.5 |
| 20260504005004 | 47 | 282 | 2.0 | 4.0 | 0.00 | 0.00 | 0.00 | 91 | 1005.4 |
| 20260504004003 | 47 | 307 | 1.0 | 4.0 | 0.00 | 0.00 | 0.00 | 91 | 1005.5 |
| 20260504003003 | 47 | 276 | 1.0 | 4.0 | 0.00 | 0.00 | 0.00 | 91 | 1005.5 |
| 20260504001004 | 47 | 0 | 0.0 | 4.0 | 0.00 | 0.00 | 0.00 | 91 | 1005.7 |
| 20260504000003 | 47 | 286 | 2.0 | 4.0 | 0.00 | 0.00 | 0.00 | 91 | 1005.6 |
| 20260503235003 | 48 | 287 | 2.0 | 4.0 | 0.00 | 0.00 | 0.00 | 91 | 1005.8 |
| 20260503234004 | 48 | 265 | 2.0 | 4.0 | 0.00 | 0.00 | 0.00 | 92 | 1006.3 |
| 20260503233004 | 47 | 234 | 1.0 | 4.0 | 0.00 | 0.00 | 0.00 | 94 | 1006.3 |
| 20260503232003 | 47 | 228 | 2.0 | 4.0 | 0.00 | 0.00 | 0.00 | 95 | 1006.2 |
| 20260503231003 | 47 | 227 | 2.0 | 4.0 | 0.00 | 0.00 | 0.00 | 95 | 1006.3 |
| 20260503230003 | 47 | 226 | 1.0 | 4.0 | 0.00 | 0.00 | 0.00 | 95 | 1006.3 |
| 20260503225003 | 47 | 226 | 1.0 | 4.0 | 0.00 | 0.00 | 0.00 | 94 | 1006.4 |
| 20260503224003 | 47 | 236 | 1.0 | 4.0 | 0.00 | 0.00 | 0.00 | 95 | 1006.5 |
| 20260503223003 | 47 | 237 | 2.0 | 6.0 | 0.00 | 0.00 | 0.00 | 94 | 1006.5 |
| 20260503222003 | 47 | 238 | 2.0 | 6.0 | 0.00 | 0.00 | 0.00 | 94 | 1006.6 |
| 20260503221003 | 47 | 251 | 3.0 | 6.0 | 0.00 | 0.00 | 0.00 | 94 | 1006.5 |
| 20260503220022 | 47 | 242 | 2.0 | 4.0 | 0.00 | 0.00 | 0.00 | 94 | 1006.8 |
| 20260503215003 | 47 | 238 | 2.0 | 6.0 | 0.00 | 0.00 | 0.00 | 93 | 1006.7 |
| 20260503214003 | 47 | 250 | 2.0 | 7.0 | 0.00 | 0.00 | 0.00 | 93 | 1006.7 |
| 20260503213003 | 47 | 232 | 2.0 | 7.0 | 0.00 | 0.00 | 0.00 | 92 | 1006.9 |
| 20260503212003 | 47 | 243 | 2.0 | 8.0 | 0.00 | 0.00 | 0.00 | 92 | 1006.9 |
| 20260503211003 | 47 | 236 | 2.0 | 8.0 | 0.00 | 0.00 | 0.00 | 92 | 1006.9 |
| 20260503210003 | 47 | 241 | 2.0 | 7.0 | 0.00 | 0.00 | 0.00 | 91 | 1007.2 |
| 20260503205003 | 47 | 233 | 2.0 | 11.0 | 0.00 | 0.00 | 0.00 | 91 | 1007.3 |
| 20260503204003 | 47 | 241 | 2.0 | 8.0 | 0.00 | 0.00 | 0.00 | 90 | 1007.4 |
| 20260503203003 | 48 | 244 | 3.0 | 9.0 | 0.00 | 0.00 | 0.00 | 89 | 1007.4 |
| 20260503202003 | 48 | 240 | 2.0 | 11.0 | 0.00 | 0.00 | 0.00 | 88 | 1007.5 |
| 20260503201003 | 48 | 236 | 4.0 | 8.0 | 0.00 | 0.00 | 0.00 | 87 | 1007.5 |
| 20260503200004 | 48 | 248 | 3.0 | 9.0 | 0.00 | 0.00 | 0.00 | 87 | 1007.4 |
| 20260503195003 | 49 | 239 | 2.0 | 8.0 | 0.00 | 0.00 | 0.00 | 86 | 1007.6 |
| 20260503194003 | 49 | 250 | 3.0 | 11.0 | 0.00 | 0.00 | 0.00 | 85 | 1007.6 |
| 20260503193003 | 49 | 239 | 4.0 | 9.0 | 0.00 | 0.00 | 0.00 | 83 | 1007.4 |
| 20260503192003 | 50 | 240 | 2.0 | 8.0 | 0.00 | 0.00 | 0.00 | 83 | 1007.5 |
| 20260503191003 | 50 | 238 | 2.0 | 8.0 | 0.00 | 0.00 | 0.00 | 82 | 1007.7 |
| 20260503190003 | 50 | 251 | 3.0 | 9.0 | 0.00 | 0.00 | 0.00 | 81 | 1007.5 |
| 20260503185004 | 50 | 220 | 1.0 | 4.0 | 0.00 | 0.00 | 0.00 | 80 | 1007.2 |
| 20260503184003 | 50 | 239 | 2.0 | 7.0 | 0.00 | 0.00 | 0.00 | 79 | 1007.3 |
| 20260503183003 | 50 | 249 | 2.0 | 4.0 | 0.00 | 0.00 | 0.00 | 77 | 1007.4 |
| 20260503182003 | 50 | 239 | 2.0 | 4.0 | 0.00 | 0.00 | 0.00 | 77 | 1007.4 |
| 20260503181003 | 50 | 247 | 1.0 | 4.0 | 0.00 | 0.00 | 0.00 | 77 | 1007.4 |
| 20260503180004 | 50 | 243 | 2.0 | 7.0 | 0.00 | 0.00 | 0.00 | 75 | 1007.4 |
| 20260503175003 | 51 | 238 | 2.0 | 11.0 | 0.00 | 0.00 | 0.00 | 74 | 1007.5 |
| 20260503174003 | 52 | 230 | 2.0 | 9.0 | 0.00 | 0.00 | 0.00 | 72 | 1007.2 |
| 20260503173003 | 52 | 244 | 3.0 | 9.0 | 0.00 | 0.00 | 0.00 | 71 | 1007.1 |
| 20260503172003 | 53 | 230 | 3.0 | 8.0 | 0.00 | 0.00 | 0.00 | 69 | 1007.5 |
| 20260503171003 | 53 | 239 | 2.0 | 9.0 | 0.00 | 0.00 | 0.00 | 67 | 1007.6 |